Location: Forli
(44.2227°N, 12.0407°E)
Time: 12:31:33
(UTC+01:00)

ARIANE 6 FM1 Upper Stage - Pass Details

Date: 24 February 2026
Orbit: 523 x 607 km, 62.0° (Epoch: 8 March)

Event Time Altitude Azimuth Distance (km) Brightness Sun altitude
Rises 18:38:44 0° 302° (WNW) 2,657 7.1 -8.9°
Reaches altitude 10° 18:41:53 10° 275° (W) 1,767 6.8 -9.5°
Maximum altitude 18:43:49 13° 246° (WSW) 1,568 6.1 -9.8°
Drops below altitude 10° 18:45:45 10° 216° (SW) 1,772 5.8 -10.1°
Sets 18:48:55 0° 189° (S) 2,670 6.3 -10.7°
